EST,Max TemperatureF,Mean TemperatureF,Min TemperatureF,Max Dew PointF,MeanDew PointF,Min DewpointF,Max Humidity, Mean Humidity, Min Humidity, Max Sea Level PressureIn, Mean Sea Level PressureIn, Min Sea Level PressureIn, Max VisibilityMiles, Mean VisibilityMiles, Min VisibilityMiles, Max Wind SpeedMPH, Mean Wind SpeedMPH, Max Gust SpeedMPH,PrecipitationIn, CloudCover, Events, WindDirDegrees
2012-11-1,75,65,55,53,46,38,87,57,27,30.01,29.96,29.90,10,10,9,15,8,24,0.00,1,,270
2012-11-2,78,63,48,52,44,39,80,54,27,30.09,30.03,29.97,10,10,10,12,7,,0.00,0,,246
2012-11-3,82,70,59,62,58,53,100,77,37,30.14,30.08,30.04,10,8,0,8,4,,0.00,1,Fog,204
2012-11-4,84,71,60,63,60,53,100,75,36,30.11,30.05,29.97,10,8,0,12,5,,0.00,3,Fog,209
2012-11-5,75,68,61,65,57,43,100,75,32,30.01,29.98,29.94,10,9,4,16,7,,0.00,3,,343
2012-11-6,73,64,55,58,54,51,100,75,48,29.97,29.89,29.82,10,9,4,14,5,18,0.14,4,Rain,16
2012-11-7,63,55,47,50,44,37,83,65,46,30.01,29.93,29.87,10,10,8,15,10,,0.01,5,Rain,323
2012-11-8,65,56,47,45,43,39,83,66,40,30.19,30.11,30.01,10,10,8,14,8,,0.00,0,,324
2012-11-9,69,57,45,44,38,19,86,56,16,30.30,30.24,30.18,10,10,10,9,2,,0.00,1,,62
2012-11-10,72,59,46,58,49,43,90,69,40,30.36,30.31,30.27,10,10,9,10,5,,0.00,1,,357
2012-11-11,78,69,60,63,58,50,90,70,37,30.35,30.31,30.27,10,10,9,16,7,,0.00,4,Rain,57
2012-11-12,77,72,66,66,63,61,94,82,58,30.28,30.24,30.19,10,10,7,16,3,,0.03,6,Rain,109
2012-11-13,77,70,63,67,63,59,94,83,54,30.20,30.17,30.11,10,9,7,15,3,,0.03,7,Rain,3
2012-11-14,64,60,57,61,59,57,100,94,87,30.25,30.20,30.17,10,4,2,18,15,24,0.00,8,Rain,19
2012-11-15,60,56,51,58,52,48,100,87,74,30.23,30.17,30.12,10,5,1,15,12,,0.00,8,,350
2012-11-16,55,53,51,50,49,47,92,84,77,30.24,30.20,30.18,10,7,2,21,11,,0.00,8,,350
2012-11-17,61,58,55,55,51,48,87,79,74,30.25,30.21,30.17,10,9,7,21,15,29,0.00,8,,7
2012-11-18,66,60,54,53,49,47,80,70,52,30.26,30.21,30.16,10,10,10,17,13,25,0.00,5,,4
2012-11-19,60,57,55,53,51,49,87,80,75,30.20,30.16,30.11,10,10,6,18,14,,0.00,8,,357
2012-11-20,69,63,57,54,52,49,88,72,50,30.13,30.08,30.03,10,10,10,14,9,,0.00,5,,4
2012-11-21,68,62,55,52,47,38,83,64,34,30.11,30.07,30.04,10,10,10,12,8,,0.00,2,,355
2012-11-22,64,56,48,45,38,26,83,55,25,30.20,30.16,30.09,10,10,10,15,8,,0.00,0,,357
2012-11-23,71,58,44,47,38,33,79,53,25,30.22,30.14,30.06,10,10,10,9,3,,0.00,1,,286
2012-11-24,66,60,52,49,36,26,86,48,23,30.11,30.06,30.01,10,10,10,16,9,,0.00,1,,306
2012-11-25,64,52,41,37,25,15,68,37,16,30.20,30.14,30.11,10,10,10,15,8,,0.00,0,,345
2012-11-26,70,54,39,48,35,17,77,52,14,30.27,30.20,30.16,10,10,10,12,4,,0.00,2,,345
2012-11-27,77,64,52,58,54,47,87,70,45,30.19,30.15,30.08,10,10,10,13,4,17,0.00,6,Rain,259
2012-11-28,59,56,53,56,51,46,94,85,74,30.35,30.26,30.15,10,9,4,16,11,,0.00,7,Rain,360
2012-11-29,66,58,51,54,51,46,93,78,60,30.36,30.32,30.30,10,9,5,14,11,,0.00,1,,11
2012-11-30,72,64,55,58,55,50,93,77,46,30.32,30.27,30.23,10,9,7,10,8,,0.00,5,,8